Tracking 28126 objects as of 2-Oct-2023
HD Live streaming from Space Station
objects crossing your sky now

STARLINK-30130

Track STARLINK-30130 now!
10-day predictions
STARLINK-30130 is classified as:


NORAD ID: 56697
Int'l Code: 2023-067K
Perigee: 565.1 km
Apogee: 567.3 km
Inclination: 43.0 °
Period: 95.8 minutes
Semi major axis: 6937 km
RCS: Unknown
Launch date: May 19, 2023
Source: United States (US)
Launch site: AIR FORCE EASTERN TEST RANGE (AFETR)
Your satellite tracking list
Your tracking list is empty




NASA's NSSDC Master Catalog

Two Line Element Set (TLE):
1 56697U 23067K   23274.49485090  .00000359  00000-0  41641-4 0  9995
2 56697  43.0024  71.3471 0001596 264.2146  95.8515 15.02542744 21490
Source of the keplerian elements: AFSPC